Regional Weather Roundup
Issued by NWS

Home | Current Version | Previous Version | Text Only | Print | Product List | Glossary Off
Versions: 1 2 3 4 5 6 7 8 9 10 11 12 13 14 15 16 17 18 19 20 21 22 23 24 25 26 27 28 29 30 31 32 33 34 35 36 37 38 39 40 41 42 43 44 45 46 47 48 49 50

000
ASUS43 KLMK 100710
RWRKY
KENTUCKY REGIONAL WEATHER ROUNDUP
NATIONAL WEATHER SERVICE LOUISVILLE KY
200 AM EST WED FEB 10 2016

NOTE "FAIR" INDICATES FEW OR NO CLOUDS BELOW 12,000 FEET
WITH NO SIGNIFICANT WEATHER AND/OR OBSTRUCTIONS TO VISIBILITY.

KYZ001>023-026-027-061>063-070>075-100800-
WESTERN AND SOUTH CENTRAL KENTUCKY

CITY           SKY/WX    TMP DP  RH WIND       PRES   REMARKS
PADUCAH        CLOUDY    24  10  55 NW10      30.10S WCI  14
HENDERSON      PTCLDY    19   9  63 W17       30.08S WCI   4
OWENSBORO      CLOUDY    18   9  68 NW13      30.07S WCI   5
HOPKINSVILLE   MOCLDY    17  15  90 SW5       30.08S WCI  10
BOWLING GREEN  FLURRIES  20  15  81 W9        30.07F WCI   9
GLASGOW        CLOUDY    19  12  73 W7        30.04S WCI  10
$$

KYZ024-025-028>034-038-045-046-053-100800-
NORTH CENTRAL KENTUCKY

CITY           SKY/WX    TMP DP  RH WIND       PRES   REMARKS
LOUISVILLE/SDF FLURRIES  19  12  74 W10       30.01S WCI   7
LOUISVILLE/LOU CLOUDY    19  11  70 W8        30.01S WCI   9
FORT KNOX      FLURRIES  18  12  79 SW7       29.98F WCI   8
$$

KYZ035>037-039>044-047>052-055>060-089>105-100800-
NORTHEAST KENTUCKY

CITY           SKY/WX    TMP DP  RH WIND       PRES   REMARKS
LEXINGTON      LGT SNOW  17  12  80 W9        29.95F WCI   6
COVINGTON      LGT SNOW  16  11  80 W9        29.92S WCI   4
FRANKFORT      LGT SNOW  18  12  77 SW5       29.96  WCI  11
$$

KYZ054-064>069-076>088-106>120-100800-
SOUTHEAST KENTUCKY

CITY           SKY/WX    TMP DP  RH WIND       PRES   REMARKS
JACKSON        CLOUDY    18  10  71 VRB6G20   29.91S WCI  10
LONDON         CLOUDY    17  10  74 W12       29.96S WCI   4
SOMERSET       FLURRIES  18  12  79 W10       30.02S WCI   6
MIDDLESBORO    CLOUDY    20  11  66 W7        29.97S WCI  11
MONTICELLO     FLURRIES  18  12  77 W13G22    30.02S WCI   5
$$




USA.gov is the U.S. government's official web portal to all federal, state and local government web resources and services.